Home > Weather > Amman > Past weeks

Flag for Jordan Weather for the Past 2 Weeks in Amman, Jordan

Now
54 °F

Clear.


Feels Like: 54 °F
Forecast: 59 / 82 °F
Wind: No wind

Location: Amman Airport

Current Time: Apr 29, 2016 at 4:59:29 AM

Latest Report: Apr 29, 2016 at 4:00 AM


Visibility: 4 mi

Pressure: 30.01 "Hg (27.21 "Hg at 816m altitude)

Humidity: 58%

Dew Point: 39 °F

Location of AmmanLocation

Historic Weather in Amman — Graph

°F

Amman Temperature Yesterday

Maximum temperature yesterday: 72 °F (at 4:00 PM)
Minimum temperature yesterday: 52 °F (at 6:00 AM)
Average temperature yesterday: 61 °F

High & Low Weather Summary for the Past Weeks

 TemperatureHumidityPressure
High91 °F (Apr 26, 4:00 PM)87% (Apr 14, 3:00 AM)30.18 "Hg (Apr 14, 3:00 AM)
Low48 °F (Apr 14, 3:00 AM)8% (Apr 18, 4:00 PM)29.77 "Hg (Apr 25, 6:00 AM)
Average71 °F33%29.99 "Hg
* Reported Apr 14 3:00 AM — Apr 29 3:00 AM, Amman, Weather by CustomWeather, © 2016

Note: Actual official high and low records may vary slightly from our data, if they occured in-between our weather recording intervals... More about our weather records

Advertising

Amman Weather History for the Previous 24 Hours

Scroll right to see more
 ConditionsComfort  
Time TempWeatherWind HumidityBarometerVisibility
3:00 AM
Fri, Apr 29
54 °FClear.No wind58%30.01 "Hg4 mi
2:00 AM55 °FClear.No wind55%30.01 "Hg4 mi
1:00 AM55 °FClear.5 mph55%30.01 "Hg4 mi
12:00 AM55 °FClear.8 mph55%30.01 "Hg4 mi
11:00 PM
Thu, Apr 28
55 °FClear.No wind72%30.01 "Hg4 mi
10:00 PM57 °FClear.6 mph67%29.98 "Hg4 mi
9:00 PM57 °FClear.No wind72%29.98 "Hg4 mi
8:00 PM59 °FClear.7 mph63%29.98 "Hg4 mi
7:00 PM64 °FClear.7 mph49%29.98 "Hg4 mi
6:00 PM68 °FClear.7 mph40%29.98 "Hg4 mi
5:00 PM70 °FHaze.12 mph35%29.98 "Hg3 mi
4:00 PM72 °FHaze.12 mph38%29.98 "Hg3 mi
3:00 PM70 °FHaze.14 mph35%29.98 "Hg3 mi
2:00 PM70 °FHaze.7 mph69%29.98 "Hg3 mi
1:00 PM70 °FHaze.12 mph38%29.98 "Hg3 mi
12:00 PM66 °FHaze.12 mph35%30.01 "Hg3 mi
11:00 AM63 °FHaze.12 mph52%30.01 "Hg3 mi
10:00 AM59 °FHaze.12 mph55%30.01 "Hg3 mi
9:00 AM59 °FHaze.7 mph55%30.01 "Hg3 mi
8:00 AM55 °FHaze.5 mph67%30.01 "Hg3 mi
7:00 AM54 °FHaze.7 mph72%30.01 "Hg3 mi
6:00 AM52 °FHaze.5 mph82%29.98 "Hg3 mi
5:00 AM54 °FClear.3 mph72%29.98 "Hg4 mi
Weather by CustomWeather, © 2016

See weather overviewHow to use our weather pages